デニング-藤川彗星

72P/Denning-Fujikawa (2005)

English version
Home page
Updated on January 24, 2015

---------------------------------------------------------------------

・ プロフィール

・ 軌道要素

Epoch 2005 July 9.0 TT = JDT 2453560.5
T 2005 June 20.16998 TT                                 MPC
q   0.7966597            (2000.0)            P               Q
n   0.10859687     Peri.  337.59006     +0.96761903     -0.23430816
a   4.3510211      Node    36.36860     +0.24887649     +0.82355657
e   0.8169028      Incl.    9.10919     +0.04211778     +0.51657939
P   9.08
From 26 observations 1881 Oct. 19-2014 June 18, mean residual 1".6.
     Nongravitational parameters A1 = -0.06, A2 = +0.0240.

・ 星図

・ 光度変化

        m1 = 15.5 + 5 logΔ + 25.0 log r

---------------------------------------------------------------------

軌道要素はM.P.E.C. 2014-M11に掲載されたものです。
星図は StellaNavigator Ver.2.0 for Windows (アストロアーツ 編著 / アスキー出版局刊) で作成したものです。
光度グラフはComet for Windowsで作成したものです。

---------------------------------------------------------------------

Copyright(C) Seiichi Yoshida (comet@aerith.net). All rights reserved.